EW3836 Weather Reports


Display with metric or nautical units.
time (UTC)temp
F
wind
direction
speed
MPH
gust
MPH
rain 1hr
in
rain 24hr
in
rain mn
in
humidity
%
barometer
mb
20260903063053 49 269 0.0 0.0 0.06 0.06 0.06 91 1006.7
20260903061556 50 157 0.0 0.0 0.03 0.03 0.03 90 1006.2
20260903054549 50 192 0.0 0.0 0.01 0.01 0.01 90 1006.4
20260903053048 50 175 0.0 0.0 0.00 0.00 0.00 90 1006.4
20260903051547 51 205 0.0 0.0 0.00 0.00 0.00 89 1006.4
20260903050046 51 177 0.0 0.0 0.00 0.00 0.00 88 1006.5
20260903044542 51 176 0.0 0.0 0.00 0.00 0.00 86 1006.6
20260903043041 51 184 0.0 0.0 0.00 0.00 0.00 85 1006.5
20260903041541 51 215 0.0 0.0 0.00 0.00 0.00 85 1006.5
20260903040038 51 201 0.0 0.0 0.00 0.00 0.00 85 1006.5
20260903034538 52 175 0.0 0.0 0.00 0.00 0.00 85 1006.4
20260903033035 52 209 0.0 0.0 0.00 0.00 0.00 83 1006.3
20260903031540 52 168 0.0 0.0 0.00 0.00 0.00 84 1006.2
20260903030039 53 178 0.0 0.0 0.00 0.00 0.00 81 1006.1
20260903024531 53 216 0.0 0.0 0.00 0.00 0.00 79 1006.1
20260903023032 53 165 0.0 0.0 0.00 0.00 0.00 78 1005.9
20260903021540 54 206 0.0 0.0 0.00 0.00 0.00 77 1005.9
20260903020036 55 207 0.0 0.0 0.00 0.00 0.00 73 1005.9
20260903014528 56 216 0.0 0.0 0.00 0.00 0.00 71 1005.8
20260903013028 56 244 0.0 0.0 0.00 0.00 0.00 70 1005.6
20260903011535 57 243 0.0 0.0 0.00 0.00 0.00 66 1005.5
20260903010031 58 242 0.0 0.0 0.00 0.00 0.00 63 1005.5
20260903004530 60 259 0.0 0.0 0.00 0.00 0.00 57 1005.4
20260903003025 60 290 0.0 0.0 0.00 0.00 0.00 55 1005.4
20260903001524 61 282 0.0 0.0 0.00 0.00 0.00 54 1005.3
20260903000037 61 301 0.0 0.0 0.00 0.00 0.00 55 1005.2
20260902234522 61 293 0.0 0.0 0.00 0.00 0.00 56 1005.1
20260902233036 62 304 0.0 0.0 0.00 0.00 0.00 56 1004.8
20260902231524 62 274 0.0 0.0 0.00 0.00 0.00 51 1004.6
20260902230020 62 283 0.0 0.0 0.00 0.00 0.00 57 1004.6
20260902224520 63 284 0.0 0.0 0.00 0.00 0.00 51 1004.0
20260902223023 65 251 0.0 0.0 0.00 0.00 0.00 51 1004.0
20260902221518 67 242 0.0 0.0 0.00 0.00 0.00 44 1003.8
20260902220025 68 350 0.0 0.0 0.00 0.00 0.00 44 1003.5
20260902214533 67 333 0.0 0.0 0.00 0.00 0.00 45 1003.7
20260902213012 67 5 0.0 0.0 0.00 0.00 0.00 45 1003.8
20260902211513 67 39 0.0 0.0 0.00 0.00 0.00 45 1004.0
20260902210013 67 239 0.0 0.0 0.00 0.00 0.00 45 1004.1
20260902204505 67 138 0.0 0.0 0.00 0.00 0.00 44 1004.3
20260902203006 68 96 0.0 0.0 0.00 0.00 0.00 44 1004.2
20260902201505 67 5 0.0 0.0 0.00 0.00 0.00 44 1004.4
20260902200059 68 77 0.0 0.0 0.00 0.00 0.00 43 1004.4
20260902194557 67 315 0.0 0.0 0.00 0.00 0.00 46 1004.6
20260902193055 65 298 0.0 0.0 0.00 0.00 0.00 47 1004.9
20260902191556 66 331 0.0 0.0 0.00 0.00 0.00 47 1004.9
20260902190052 67 103 0.0 0.0 0.00 0.00 0.00 47 1005.0
20260902184550 64 328 0.0 0.0 0.00 0.00 0.00 52 1005.1
20260902183054 64 360 0.0 0.0 0.00 0.00 0.00 52 1005.2
20260902181544 61 309 0.0 0.0 0.00 0.00 0.00 54 1005.4
20260902180040 60 263 0.0 0.0 0.00 0.00 0.00 55 1005.6
20260902174548 60 128 0.0 0.0 0.00 0.00 0.00 55 1005.7
20260902173100 59 144 0.0 0.0 0.00 0.00 0.00 57 1005.8
20260902171540 58 254 0.0 0.0 0.00 0.00 0.00 59 1006.0
20260902170033 59 196 0.0 0.0 0.00 0.00 0.00 59 1006.0
20260902164532 59 124 0.0 0.0 0.00 0.00 0.00 60 1005.7
20260902163028 57 174 0.0 0.0 0.00 0.00 0.00 63 1005.6
20260902161525 57 232 0.0 0.0 0.00 0.00 0.00 64 1005.7
20260902160034 56 217 0.0 0.0 0.00 0.00 0.00 65 1005.6
20260902154536 55 204 0.0 0.0 0.00 0.00 0.00 67 1005.8
20260902153035 55 216 0.0 0.0 0.00 0.00 0.00 68 1006.0
20260902151520 53 189 0.0 0.0 0.00 0.00 0.00 70 1006.1
20260902150019 53 220 0.0 0.0 0.00 0.00 0.00 71 1006.0
20260902144518 53 223 0.0 0.0 0.00 0.00 0.00 72 1006.1
20260902143018 53 219 0.0 0.0 0.00 0.00 0.00 72 1006.1
20260902141517 53 210 0.0 0.0 0.00 0.00 0.00 72 1006.0
20260902140016 53 160 0.0 0.0 0.00 0.00 0.00 72 1006.1
20260902134514 53 216 0.0 0.0 0.00 0.00 0.00 73 1006.1
20260902133014 53 226 0.0 0.0 0.00 0.00 0.00 73 1006.1
20260902131514 53 244 0.0 0.0 0.00 0.00 0.00 73 1005.8
20260902130011 53 219 0.0 0.0 0.00 0.00 0.00 74 1005.5
20260902124510 53 200 0.0 0.0 0.00 0.00 0.00 75 1005.6
20260902123011 53 184 0.0 0.0 0.00 0.00 0.00 76 1005.9
20260902121509 52 182 0.0 0.0 0.00 0.00 0.00 77 1005.5
20260902120008 52 163 0.0 0.0 0.00 0.00 0.00 77 1005.4
20260902114506 52 242 0.0 0.0 0.00 0.00 0.00 77 1005.2
20260902113005 53 161 0.0 0.0 0.00 0.00 0.00 77 1005.6
20260902111503 52 214 0.0 0.0 0.00 0.00 0.00 77 1005.5
20260902110002 52 236 0.0 0.0 0.00 0.00 0.00 77 1005.9
20260902104600 53 233 0.0 0.0 0.00 0.00 0.00 77 1006.0
20260902103058 52 227 0.0 0.0 0.00 0.00 0.00 77 1005.9
20260902101557 52 271 0.0 0.0 0.00 0.00 0.00 77 1005.2
20260902100055 52 240 0.0 0.0 0.00 0.00 0.00 77 1005.5
20260902094557 53 236 0.0 0.0 0.00 0.00 0.00 76 1005.4
20260902093051 53 217 0.0 0.0 0.00 0.00 0.00 75 1005.4
20260902091602 53 257 0.0 0.0 0.00 0.00 0.00 74 1005.6
20260902090048 53 239 0.0 0.0 0.00 0.00 0.00 73 1005.5
20260902084550 53 215 0.0 0.0 0.00 0.00 0.00 73 1005.4
20260902083048 54 228 0.0 0.0 0.00 0.00 0.00 72 1005.7
20260902081545 54 244 0.0 0.0 0.00 0.00 0.00 71 1005.6
20260902080043 54 232 0.0 0.0 0.00 0.00 0.00 70 1005.7
20260902074537 55 247 0.0 0.0 0.00 0.00 0.00 68 1005.5
20260902073038 55 255 0.0 0.0 0.00 0.00 0.00 67 1005.2
20260902071535 56 253 0.0 0.0 0.00 0.00 0.00 65 1005.2
20260902070034 56 223 0.0 0.0 0.00 0.00 0.00 64 1005.1
20260902064536 56 209 0.0 0.0 0.00 0.00 0.00 63 1004.8